Flag for Canada Weather past 2 weeks in Inuvik, Northwest Territories, Canada

Now
21 °F

Mostly cloudy.


Feels Like: 9 °F
Forecast: 12 / 17 °F
Wind: 13 mph from East

Location: Inuvik

Current Time: Oct 21, 2014 at 9:15:16 PM

Latest Report: Oct 21, 2014 at 8:00 PM


Visibility: 15 mi

Pressure: 29.86 "Hg

Humidity: 80%

Dew point: 16 °F

Location of InuvikLocation

Historic Weather in Inuvik — Graph

°F

Inuvik temperature yesterday

Maximum temperature yesterday: 28 °F (at 4:00 PM)
Minimum temperature yesterday: 23 °F (at 4:00 AM)
Average temperature yesterday: 25 °F

Past Weeks' High & Low Weather Summary

 TemperatureHumidityPressure
High32 °F (Oct 11, 1:00 PM)100% (Oct 7, 12:00 AM)30.12 "Hg (Oct 7, 12:00 AM)
Low10 °F (Oct 10, 1:00 AM)63% (Oct 9, 6:00 PM)29.37 "Hg (Oct 11, 2:00 AM)
Average24 °F89%29.84 "Hg
* Reported Oct 6 8:00 PM — Oct 21 8:00 PM, Inuvik, Weather by CustomWeather, © 2014

Note: Actual official high and low records may vary slightly from our data, if they occured in-between our weather recording intervals... More about our weather records

Advertising

Inuvik weather history for previous 24 hours

 ConditionsComfort  
Time TempWeatherWind HumidityBarometerVisibility
8:00 PM
Oct 21
21 °FMostly cloudy.13 mph80%29.86 "Hg15 mi
7:00 PM21 °FPartly sunny.13 mph80%29.85 "Hg15 mi
6:00 PM23 °FPartly sunny.8 mph74%29.84 "Hg15 mi
5:00 PM23 °FPartly sunny.10 mph74%29.82 "Hg15 mi
4:00 PM25 °FPartly sunny.12 mph74%29.81 "Hg15 mi
3:00 PM25 °FOvercast.12 mph74%29.80 "Hg15 mi
2:00 PM25 °FBroken clouds.8 mph74%29.79 "Hg15 mi
1:00 PM25 °FPartly cloudy.9 mph74%29.78 "Hg14 mi
12:00 PM25 °FOvercast.9 mph74%29.76 "Hg15 mi
11:00 AM21 °FLight snow. Passing clouds.5 mph86%29.75 "Hg15 mi
10:00 AM23 °FLight snow. Passing clouds.7 mph80%29.72 "Hg15 mi
9:00 AM25 °FLight snow. Mostly cloudy.9 mph80%29.70 "Hg15 mi
8:00 AM25 °FLight snow. Overcast.7 mph80%29.70 "Hg10 mi
7:00 AM25 °FLight snow. Overcast.8 mph86%29.68 "Hg6 mi
6:00 AM25 °FLight snow. Overcast.7 mph93%29.67 "Hg5 mi
5:00 AM25 °FLight snow. Overcast.5 mph93%29.66 "Hg5 mi
4:00 AM25 °FLight snow. Overcast.6 mph86%29.64 "Hg5 mi
3:53 AM25 °FLight snow. Overcast.7 mph86%29.64 "Hg5 mi
3:00 AM25 °FLight snow. Overcast.8 mph86%29.62 "Hg3 mi
2:00 AM25 °FLight snow. Overcast.9 mph86%29.61 "Hg10 mi
1:00 AM25 °FLight snow. Overcast.9 mph86%29.60 "Hg10 mi
12:00 AM25 °FLight snow. Overcast.8 mph86%29.59 "Hg3 mi
11:00 PM
Oct 20
25 °FLight snow. Overcast.9 mph86%29.58 "Hg3 mi
10:00 PM25 °FLight snow. Overcast.10 mph86%29.57 "Hg5 mi
9:00 PM25 °FLight snow. Overcast.15 mph93%29.55 "Hg3 mi
Weather by CustomWeather, © 2014

See weather overviewHow to use our weather pages